When you browse on this site, cookies collect data to enhance your experience and personalize the content and advertising you see.
Visit our Privacy Policy to learn more. By continuing to use the site, you agree to this use of cookies and data.
  • în România
  • Lista ţărilor
  • Pe 7 zile
  • Temperatura apei
  • Hartă satelitară
  • Meteo pe hartă
  • Widget-uri
  • user-avatar
    Intrare

    Meteo pe oră la Malinovaya Varaka

    Astăzi, 18 Februarie, Luni

    Timp Temperatura Precipitaţii Vânt Presiune Umiditate
    00:00 -14°C° 0 mm 4 m/s 756 mmHg 84%
    01:00 -14°C° 0 mm 3 m/s 757 mmHg 87%
    02:00 -15°C° 0 mm 3 m/s 757 mmHg 89%
    03:00 -14°C° 0 mm 3 m/s 757 mmHg 90%
    04:00 -14°C° 0 mm 3 m/s 757 mmHg 91%
    05:00 -12°C° 0 mm 2 m/s 757 mmHg 92%
    06:00 -13°C° 0 mm 3 m/s 757 mmHg 91%
    07:00 -13°C° 0 mm 3 m/s 757 mmHg 91%
    08:00 -14°C° 0 mm 3 m/s 756 mmHg 90%
    09:00 -13°C° 0 mm 3 m/s 756 mmHg 89%
    10:00 -12°C° 0 mm 3 m/s 756 mmHg 88%
    11:00 -10°C° 0 mm 3 m/s 755 mmHg 87%
    12:00 -10°C° 0 mm 3 m/s 754 mmHg 85%
    13:00 -10°C° 0 mm 3 m/s 754 mmHg 84%
    14:00 -9°C° 0 mm 3 m/s 753 mmHg 83%
    15:00 -10°C° 0.2 mm 4 m/s 751 mmHg 86%
    16:00 -10°C° 0.2 mm 4 m/s 750 mmHg 89%
    17:00 -10°C° 0.2 mm 4 m/s 749 mmHg 91%
    18:00 -9°C° 0.4 mm 4 m/s 748 mmHg 92%
    19:00 -9°C° 0.4 mm 4 m/s 746 mmHg 92%
    20:00 -9°C° 0.4 mm 4 m/s 745 mmHg 93%
    21:00 -8°C° 0.6 mm 4 m/s 744 mmHg 93%
    22:00 -8°C° 0.6 mm 4 m/s 742 mmHg 93%
    23:00 -7°C° 0.6 mm 4 m/s 741 mmHg 94%

    Mâine, 19 Februarie, Marţi

    Timp Temperatura Precipitaţii Vânt Presiune Umiditate
    00:00 -6°C° 0.4 mm 3 m/s 741 mmHg 94%
    01:00 -4°C° 0.4 mm 2 m/s 740 mmHg 95%
    02:00 -3°C° 0.4 mm 2 m/s 739 mmHg 96%
    03:00 -3°C° 0 mm 2 m/s 739 mmHg 96%
    04:00 -4°C° 0 mm 2 m/s 739 mmHg 96%
    05:00 -4°C° 0 mm 2 m/s 738 mmHg 96%
    06:00 -2°C° 0 mm 1 m/s 738 mmHg 96%
    07:00 -2°C° 0 mm 1 m/s 739 mmHg 97%
    08:00 -2°C° 0 mm 1 m/s 739 mmHg 97%
    09:00 -2°C° 0.2 mm 1 m/s 739 mmHg 97%
    10:00 -4°C° 0.2 mm 2 m/s 739 mmHg 97%
    11:00 -4°C° 0.2 mm 2 m/s 739 mmHg 98%
    12:00 -4°C° 0.2 mm 2 m/s 739 mmHg 98%
    13:00 -5°C° 0.2 mm 3 m/s 738 mmHg 97%
    14:00 -5°C° 0.2 mm 3 m/s 738 mmHg 97%
    15:00 -5°C° 0.2 mm 3 m/s 738 mmHg 97%
    16:00 -5°C° 0.2 mm 3 m/s 738 mmHg 97%
    17:00 -7°C° 0.2 mm 4 m/s 737 mmHg 97%
    18:00 -7°C° 0.2 mm 4 m/s 737 mmHg 97%
    19:00 -7°C° 0.2 mm 4 m/s 737 mmHg 97%
    20:00 -7°C° 0.2 mm 4 m/s 736 mmHg 97%
    21:00 -7°C° 0.3 mm 4 m/s 736 mmHg 97%
    22:00 -6°C° 0.3 mm 3 m/s 736 mmHg 97%
    23:00 -6°C° 0.3 mm 3 m/s 735 mmHg 97%

    Poimâine, 20 Februarie, Miercuri

    Timp Temperatura Precipitaţii Vânt Presiune Umiditate
    00:00 -7°C° 0.2 mm 3 m/s 735 mmHg 97%
    01:00 -7°C° 0.2 mm 3 m/s 735 mmHg 97%
    02:00 -8°C° 0.2 mm 3 m/s 735 mmHg 97%
    03:00 -8°C° 0.2 mm 3 m/s 735 mmHg 97%
    04:00 -8°C° 0.2 mm 3 m/s 735 mmHg 97%
    05:00 -8°C° 0.2 mm 3 m/s 734 mmHg 97%
    06:00 -10°C° 0.3 mm 4 m/s 735 mmHg 96%
    07:00 -11°C° 0.3 mm 5 m/s 735 mmHg 95%
    08:00 -11°C° 0.3 mm 5 m/s 736 mmHg 94%
    09:00 -11°C° 0.2 mm 6 m/s 737 mmHg 93%
    10:00 -12°C° 0.2 mm 6 m/s 737 mmHg 92%
    11:00 -13°C° 0.2 mm 7 m/s 738 mmHg 91%
    12:00 -13°C° 0.2 mm 7 m/s 739 mmHg 90%
    13:00 -13°C° 0.2 mm 7 m/s 740 mmHg 89%
    14:00 -15°C° 0.2 mm 8 m/s 741 mmHg 88%
    15:00 -14°C° 0.2 mm 7 m/s 742 mmHg 87%
    16:00 -14°C° 0.2 mm 7 m/s 744 mmHg 86%
    17:00 -14°C° 0.2 mm 7 m/s 745 mmHg 85%
    18:00 -14°C° 0.2 mm 6 m/s 746 mmHg 87%
    19:00 -14°C° 0.2 mm 6 m/s 747 mmHg 88%
    20:00 -12°C° 0.2 mm 6 m/s 748 mmHg 89%
    21:00 -14°C° 0.1 mm 6 m/s 749 mmHg 86%
    22:00 -15°C° 0.1 mm 6 m/s 750 mmHg 83%
    23:00 -15°C° 0.1 mm 6 m/s 750 mmHg 80%

    21 Februarie, Joi

    Timp Temperatura Precipitaţii Vânt Presiune Umiditate
    00:00 -15°C° 0 mm 5 m/s 751 mmHg 82%
    01:00 -17°C° 0 mm 5 m/s 752 mmHg 84%
    02:00 -18°C° 0 mm 5 m/s 753 mmHg 86%
    03:00 -18°C° 0 mm 4 m/s 753 mmHg 86%
    04:00 -18°C° 0 mm 4 m/s 754 mmHg 87%
    05:00 -18°C° 0 mm 4 m/s 755 mmHg 87%
    06:00 -19°C° 0 mm 4 m/s 755 mmHg 88%
    07:00 -19°C° 0 mm 4 m/s 756 mmHg 88%
    08:00 -19°C° 0 mm 3 m/s 757 mmHg 89%
    09:00 -18°C° 0 mm 3 m/s 757 mmHg 89%
    10:00 -17°C° 0 mm 3 m/s 758 mmHg 90%
    11:00 -16°C° 0 mm 3 m/s 758 mmHg 90%
    12:00 -16°C° 0 mm 3 m/s 759 mmHg 90%
    13:00 -15°C° 0 mm 3 m/s 759 mmHg 89%
    14:00 -14°C° 0 mm 3 m/s 760 mmHg 88%
    15:00 -15°C° 0 mm 3 m/s 760 mmHg 88%
    16:00 -16°C° 0 mm 3 m/s 760 mmHg 89%
    17:00 -17°C° 0 mm 3 m/s 761 mmHg 89%
    18:00 -17°C° 0 mm 3 m/s 761 mmHg 88%
    19:00 -18°C° 0 mm 3 m/s 762 mmHg 88%
    20:00 -18°C° 0 mm 3 m/s 762 mmHg 87%
    21:00 -19°C° 0 mm 3 m/s 763 mmHg 86%
    22:00 -19°C° 0 mm 3 m/s 763 mmHg 86%
    23:00 -19°C° 0 mm 3 m/s 763 mmHg 85%

    22 Februarie, Vineri

    Timp Temperatura Precipitaţii Vânt Presiune Umiditate
    00:00 -19°C° 0 mm 3 m/s 764 mmHg 84%
    01:00 -21°C° 0 mm 3 m/s 764 mmHg 84%
    02:00 -22°C° 0 mm 4 m/s 764 mmHg 84%
    03:00 -20°C° 0 mm 4 m/s 765 mmHg 86%
    04:00 -20°C° 0 mm 4 m/s 765 mmHg 88%
    05:00 -20°C° 0 mm 4 m/s 765 mmHg 90%
    06:00 -20°C° 0 mm 4 m/s 765 mmHg 90%
    07:00 -19°C° 0 mm 3 m/s 766 mmHg 91%
    08:00 -19°C° 0 mm 3 m/s 766 mmHg 91%
    09:00 -18°C° 0 mm 3 m/s 766 mmHg 90%
    10:00 -17°C° 0 mm 3 m/s 767 mmHg 90%
    11:00 -16°C° 0 mm 3 m/s 767 mmHg 90%
    12:00 -15°C° 0 mm 3 m/s 767 mmHg 90%
    13:00 -14°C° 0 mm 3 m/s 767 mmHg 91%
    14:00 -13°C° 0 mm 2 m/s 766 mmHg 91%
    15:00 -12°C° 0 mm 2 m/s 766 mmHg 92%
    16:00 -13°C° 0 mm 3 m/s 765 mmHg 94%
    17:00 -13°C° 0 mm 3 m/s 765 mmHg 95%
    18:00 -12°C° 0 mm 3 m/s 764 mmHg 93%
    19:00 -12°C° 0 mm 4 m/s 763 mmHg 91%
    20:00 -11°C° 0 mm 4 m/s 761 mmHg 90%
    21:00 -11°C° 0.3 mm 5 m/s 760 mmHg 91%
    22:00 -11°C° 0.3 mm 5 m/s 759 mmHg 91%
    23:00 -11°C° 0.3 mm 6 m/s 758 mmHg 92%

    23 Februarie, Sâmbătă

    Timp Temperatura Precipitaţii Vânt Presiune Umiditate
    00:00 -10°C° 0.9 mm 6 m/s 757 mmHg 92%
    01:00 -8°C° 0.9 mm 5 m/s 756 mmHg 93%
    02:00 -7°C° 0.9 mm 5 m/s 755 mmHg 93%
    03:00 -7°C° 0.1 mm 5 m/s 755 mmHg 92%
    04:00 -5°C° 0.1 mm 4 m/s 754 mmHg 92%
    05:00 -4°C° 0.1 mm 3 m/s 754 mmHg 92%
    06:00 -4°C° 0 mm 3 m/s 754 mmHg 92%
    07:00 -2°C° 0 mm 3 m/s 754 mmHg 93%
    08:00 -2°C° 0 mm 3 m/s 755 mmHg 93%
    09:00 -2°C° 0 mm 3 m/s 755 mmHg 95%
    10:00 -1°C° 0 mm 2 m/s 755 mmHg 97%
    11:00 +1°C° 0 mm 2 m/s 755 mmHg 99%
    12:00 +1°C° 0 mm 2 m/s 755 mmHg 99%
    13:00 0°C° 0 mm 3 m/s 754 mmHg 99%
    14:00 0°C° 0 mm 3 m/s 754 mmHg 99%
    15:00 0°C° 0 mm 3 m/s 753 mmHg 99%
    16:00 0°C° 0 mm 3 m/s 753 mmHg 98%
    17:00 -1°C° 0 mm 4 m/s 752 mmHg 97%
    18:00 -1°C° 0.2 mm 4 m/s 751 mmHg 97%
    19:00 0°C° 0.2 mm 5 m/s 749 mmHg 97%
    20:00 0°C° 0.2 mm 5 m/s 748 mmHg 97%
    21:00 -1°C° 1 mm 6 m/s 746 mmHg 98%
    22:00 -1°C° 1 mm 6 m/s 745 mmHg 98%
    23:00 +1°C° 1 mm 6 m/s 743 mmHg 99%
    Arată mai mult